Content
SEND FEEDBACK

Daily
Averages
Monthly
Summary
Bosnia and Herzegovina

GORA, BOSNIA AND HERZEGOVINA


Home > Europe > Bosnia and Herzegovina
Elevation: 2090 feet     Latitude: 43 54N     Longitude: 018 24E

WEATHER
 
SELECT A DAY
Number of Records: 177,608;   Date Range: 2/20/97 - 7/23/14
 
SHARE

PRINT THIS DATA

[ ← Previous Day ]
WEATHER ALMANAC - JUNE 9, 2014
[ Next Day → ]
[ °C ]   °F
Weather ElementAverageHighLow
Temperature72.4 °F86 °F (3:30 pm)55.4 °F (5:00 am)
Dewpoint56.4 °F62.6 °F (11:30 am)51.8 °F (4:00 pm)
Humidity61.8 %100 % (5:30 am)31 % (4:00 pm)
Barometer30.18 in30.24 in (8:00 am)30.12 in (4:00 pm)
Wind Speed2.6 mph8.1 mph (6:00 pm)
Weather ElementAverage
Visibility6.2 mi
Wind DirectionNE (45.9 °)

Weather ElementTotal
Precipitation---
Cooling Degree Days5.7 (Base 65)
Growing Degree Days20.7 (Base 50)
Averaged from 37 records on June 9, 2014
WEATHER CONDITIONS BREAKOUT
WIND DIRECTION BREAKOUT
WEATHER BY HOUR - JUNE 9, 2014
[ °C ]   °F
Local TimeTemperatureDewpointHumidityBarometerVisibilityWind DirectionWind SpeedGust SpeedPrecipitationEventsConditions
1:00 AM62.6 °F57.2 °F82 %30.21 inVariable2.3 mphClear
2:00 AM60.8 °F57.2 °F88 %30.21 inVariable1.2 mphClear
3:00 AM59.0 °F55.4 °F88 %30.21 inVariable1.2 mphClear
4:00 AM57.2 °F55.4 °F94 %30.21 inVariable1.2 mphClear
5:00 AM55.4 °F53.6 °F94 %30.21 inVariable1.2 mphClear
5:30 AM55.4 °F55.4 °F100 %30.21 inVariable1.2 mphClear
6:00 AM57.2 °F55.4 °F94 %30.21 inVariable1.2 mphClear
6:30 AM57.2 °F57.2 °F100 %30.21 inCalmClear
7:00 AM59.0 °F57.2 °F94 %30.21 inVariable1.2 mphClear
7:30 AM64.4 °F59.0 °F83 %30.21 inVariable1.2 mphClear
8:00 AM62.6 °F57.2 °F82 %30.24 inVariable1.2 mphClear
8:30 AM64.4 °F59.0 °F83 %30.21 inVariable1.2 mphClear
9:00 AM66.2 °F59.0 °F78 %30.21 in6.2 miVariable1.2 mphPartly Cloudy
9:30 AM68.0 °F57.2 °F68 %30.21 in6.2 miVariable1.2 mphPartly Cloudy
10:00 AM71.6 °F60.8 °F69 %30.21 in6.2 miVariable2.3 mphPartly Cloudy
10:30 AM75.2 °F60.8 °F61 %30.21 in6.2 miVariable1.2 mphPartly Cloudy
11:00 AM75.2 °F59.0 °F57 %30.21 in6.2 miVariable2.3 mphPartly Cloudy
11:30 AM78.8 °F62.6 °F57 %30.18 in6.2 miVariable3.5 mphPartly Cloudy
12:00 PM78.8 °F59.0 °F51 %30.18 in6.2 miVariable2.3 mphPartly Cloudy
12:30 PM80.6 °F59.0 °F48 %30.18 in6.2 miVariable3.5 mphPartly Cloudy
1:00 PM82.4 °F60.8 °F48 %30.18 in6.2 miVariable2.3 mphScattered Clouds
1:30 PM82.4 °F57.2 °F42 %30.15 in6.2 miNW (310°)3.5 mphScattered Clouds
2:00 PM80.6 °F55.4 °F42 %30.15 in6.2 miWest (260°)4.6 mphScattered Clouds
3:00 PM84.2 °F55.4 °F37 %30.15 in6.2 miVariable2.3 mphScattered Clouds
3:30 PM86.0 °F55.4 °F35 %30.15 in6.2 miVariable2.3 mphScattered Clouds
4:00 PM86.0 °F51.8 °F31 %30.12 in6.2 miVariable2.3 mphScattered Clouds
4:30 PM84.2 °F55.4 °F37 %30.12 in6.2 miNE (50°)4.6 mphScattered Clouds
5:00 PM84.2 °F55.4 °F37 %30.12 in6.2 miVariable4.6 mphScattered Clouds
5:30 PM84.2 °F53.6 °F35 %30.12 in6.2 miNorth (360°)5.8 mphScattered Clouds
6:00 PM82.4 °F53.6 °F37 %30.12 in6.2 miNorth (360°)8.1 mphScattered Clouds
6:30 PM82.4 °F53.6 °F37 %30.12 in6.2 miVariable5.8 mphPartly Cloudy
7:00 PM82.4 °F51.8 °F35 %30.12 in6.2 miNorth (10°)4.6 mphPartly Cloudy
7:30 PM80.6 °F51.8 °F37 %30.12 in6.2 miVariable3.5 mphPartly Cloudy
8:00 PM78.8 °F53.6 °F42 %30.15 in6.2 miNorth (350°)3.5 mphPartly Cloudy
8:30 PM78.8 °F53.6 °F42 %30.15 in6.2 miVariable2.3 mphPartly Cloudy
10:30 PM66.2 °F55.4 °F68 %30.18 in6.2 miVariable2.3 mphPartly Cloudy
11:00 PM64.4 °F55.4 °F73 %30.18 inVariable1.2 mphClear
Hourly data recorded from LQSA, located miles away from Gora, Bosnia and Herzegovina







STORIES FROM OUR PARTNERS